DW8913 Weather Reports


time (UTC)temp
C
wind
direction
speed
KPH
gust
KPH
rain 1hr
cm
rain 24hr
cm
rain mn
cm
humidity
%
barometer
mb
20260906190140 23 215 1.6 11.3 0.00 0.05 0.05 71 1014.0
20260906184538 23 227 3.2 12.9 0.00 0.05 0.05 70 1013.9
20260906183011 24 27 1.6 14.5 0.00 0.05 0.05 72 1014.1
20260906181553 23 225 0.0 11.3 0.03 0.05 0.05 72 1014.0
20260906180022 24 33 3.2 9.7 0.05 0.05 0.05 71 1013.9
20260906174607 24 214 1.6 11.3 0.05 0.05 0.05 75 1013.9
20260906173047 22 211 0.0 8.0 0.05 0.05 0.05 76 1014.0
20260906171512 23 197 3.2 11.3 0.03 0.03 0.03 73 1014.4
20260906170050 26 21 3.2 11.3 0.00 0.00 0.00 65 1014.0
20260906164519 25 221 3.2 9.7 0.00 0.00 0.00 67 1013.8
20260906163059 26 46 1.6 8.0 0.00 0.00 0.00 63 1014.0
20260906161525 26 295 1.6 9.7 0.00 0.00 0.00 65 1014.0
20260906160109 26 211 1.6 9.7 0.00 0.00 0.00 64 1014.0
20260906154541 25 207 1.6 9.7 0.00 0.00 0.00 66 1014.0
20260906153013 26 174 6.4 11.3 0.00 0.00 0.00 61 1014.0
20260906151600 27 236 1.6 11.3 0.00 0.00 0.00 63 1014.0
20260906150030 26 237 3.2 11.3 0.00 0.00 0.00 61 1013.9
20260906144601 26 214 1.6 16.1 0.00 0.00 0.00 67 1013.8
20260906143032 25 353 3.2 11.3 0.00 0.00 0.00 64 1013.6
20260906141608 25 27 3.2 8.0 0.00 0.00 0.00 66 1013.5
20260906140045 25 108 1.6 9.7 0.00 0.00 0.00 68 1013.4
20260906134509 24 264 3.2 14.5 0.00 0.00 0.00 70 1013.4
20260906133116 24 250 1.6 8.0 0.00 0.00 0.00 72 1013.4
20260906131533 23 269 1.6 12.9 0.00 0.00 0.00 75 1013.3
20260906130119 23 205 1.6 11.3 0.00 0.00 0.00 77 1013.2
20260906124544 22 210 1.6 8.0 0.00 0.00 0.00 80 1013.1
20260906123015 21 211 1.6 9.7 0.00 0.00 0.00 84 1013.1
20260906121555 20 223 1.6 8.0 0.00 0.00 0.00 86 1013.0
20260906120024 18 250 3.2 9.7 0.00 0.00 0.00 87 1013.1
20260906114601 18 90 1.6 9.7 0.00 0.00 0.00 88 1012.9
20260906113037 18 254 1.6 6.4 0.00 0.00 0.00 88 1012.8
20260906111611 18 332 3.2 9.7 0.00 0.00 0.00 88 1012.6
20260906110053 18 243 3.2 8.0 0.00 0.00 0.00 88 1012.3
20260906104513 18 44 1.6 8.0 0.00 0.00 0.00 88 1011.9
20260906103050 18 284 3.2 12.9 0.00 0.00 0.00 88 1011.8
20260906101523 18 212 0.0 11.3 0.00 0.00 0.00 88 1011.7
20260906100112 18 85 1.6 9.7 0.00 0.00 0.00 88 1011.5
20260906094556 18 42 1.6 9.7 0.00 0.00 0.00 88 1011.2
20260906093033 18 217 1.6 6.4 0.00 0.00 0.00 87 1011.0
20260906091549 18 37 1.6 4.8 0.00 0.00 0.00 87 1010.9
20260906090021 18 305 0.0 3.2 0.00 0.00 0.00 87 1010.8
20260906084625 18 32 0.0 4.8 0.00 0.00 0.00 87 1010.6
20260906083039 18 226 0.0 6.4 0.00 0.00 0.00 87 1010.7
20260906081504 18 356 0.0 9.7 0.00 0.00 0.00 86 1010.7
20260906080050 18 31 1.6 9.7 0.00 0.00 0.00 86 1010.7
20260906074530 19 236 1.6 9.7 0.00 0.00 0.00 87 1010.5
20260906073054 19 38 1.6 6.4 0.00 0.00 0.00 88 1010.5
20260906071525 19 26 0.0 3.2 0.00 0.00 0.00 89 1010.5
20260906070108 20 85 0.0 1.6 0.00 0.00 0.00 90 1010.5
20260906064544 20 264 0.0 1.6 0.00 0.28 0.00 89 1010.5
20260906063012 20 351 0.0 1.6 0.00 0.28 0.00 88 1010.5
20260906061602 20 353 0.0 0.0 0.00 0.28 0.00 88 1010.5
20260906060022 20 62 0.0 0.0 0.00 0.28 0.00 88 1010.6
20260906054606 20 62 0.0 0.0 0.00 0.28 0.00 87 1010.6
20260906053028 20 62 0.0 0.0 0.00 0.28 0.00 87 1010.8
20260906051613 20 61 0.0 0.0 0.00 0.28 0.00 87 1010.9
20260906050040 21 166 0.0 0.0 0.00 0.28 0.00 88 1011.0
20260906044512 21 166 0.0 0.0 0.00 0.41 0.00 87 1011.1
20260906043055 21 166 0.0 0.0 0.00 0.41 0.00 85 1011.0
20260906041542 21 166 0.0 0.0 0.00 0.41 0.00 84 1011.0
20260906040112 21 165 0.0 0.0 0.00 0.41 0.00 83 1011.2
20260906034547 21 166 0.0 0.0 0.00 0.41 0.41 82 1011.1
20260906033020 21 166 0.0 0.0 0.00 0.41 0.41 79 1011.1
20260906031559 22 165 0.0 0.0 0.00 0.41 0.41 78 1011.2
20260906030034 22 166 0.0 0.0 0.00 0.41 0.41 78 1011.1
20260906024504 22 166 0.0 0.0 0.00 0.41 0.41 77 1011.1
20260906023100 22 163 0.0 0.0 0.00 0.41 0.41 77 1011.1
20260906021525 22 167 0.0 0.0 0.00 0.41 0.41 76 1011.0
20260906020108 22 167 0.0 0.0 0.00 0.41 0.41 76 1010.9
20260906014546 23 174 0.0 1.6 0.00 0.41 0.41 75 1010.7
20260906013016 23 176 0.0 1.6 0.00 0.41 0.41 75 1010.7
20260906011559 23 160 0.0 1.6 0.00 0.41 0.41 74 1010.7
20260906010054 23 171 0.0 3.2 0.00 0.41 0.41 74 1010.5
20260906004609 23 99 0.0 3.2 0.00 0.41 0.41 74 1010.6
20260906003045 23 223 0.0 3.2 0.00 0.41 0.41 74 1010.3
20260906001507 23 130 0.0 4.8 0.00 0.41 0.41 74 1010.2
20260906000052 23 214 1.6 4.8 0.00 0.41 0.41 73 1009.9
20260905234527 23 155 1.6 4.8 0.00 0.41 0.41 73 1009.9
20260905233106 23 98 1.6 6.4 0.00 0.41 0.41 73 1009.7
20260905231543 24 34 1.6 9.7 0.00 0.41 0.41 71 1009.6
20260905230008 25 156 1.6 9.7 0.00 0.41 0.41 68 1009.4
20260905224549 26 32 3.2 11.3 0.00 0.41 0.41 55 1009.2
20260905223027 26 302 1.6 9.7 0.00 0.41 0.41 53 1009.3
20260905221559 26 30 3.2 11.3 0.00 0.41 0.41 52 1009.2
20260905220028 26 44 4.8 14.5 0.00 0.41 0.41 51 1009.0
20260905214605 26 270 1.6 11.3 0.00 0.41 0.41 51 1009.0
20260905213040 26 277 3.2 11.3 0.00 0.41 0.41 51 1008.8
20260905211513 26 264 3.2 11.3 0.00 0.41 0.41 52 1008.7
20260905210045 26 350 1.6 11.3 0.00 0.41 0.41 54 1008.8
20260905204509 26 56 3.2 8.0 0.00 0.41 0.41 58 1008.7
20260905203059 27 263 1.6 8.0 0.00 0.41 0.41 55 1008.8
20260905201526 27 57 1.6 9.7 0.00 0.41 0.41 55 1008.9
20260905194525 27 146 1.6 12.9 0.00 0.41 0.41 56 1009.1
20260905193110 27 150 1.6 6.4 0.00 0.41 0.41 56 1009.2
20260905191538 27 71 0.0 8.0 0.00 0.41 0.41 55 1009.3